SPACEBEE-3 (43140 NORAD) Tracking and Keplerian Element Data

This shows tracking and keplerian element data for the satellite.

Feedback or suggestion? Click here.




ElementValue
Catalog43140
NameSPACEBEE-3
Epoch Orbit26295
Epoch Day269.91044049
Epoch Year2022
RAAN2.9723
Inclination97.3708
Eccentricity0.0010418
Argument of Perigee280.697
Mean Anonmoly79.3133
Mean Motion15.9659455
Decay Rate0.00884133
L11 43140U 18004AF 22269.91044049 .00884133 35580-3 21071-2 0 9991
L22 43140 97.3708 2.9723 0010418 280.6970 79.3133 15.96594550262956



Live tracking and technical data element details for SPACEBEE-3 (NORAD 43140). SPACEBEE-3 can be tracked NOW for your location showing map with azimuth and elevation plus other details from your city location.







IsCatalogInMostPopularTable: catalog: 43140, numindb: 551
Update: records affected: 1



GetName: 43140 SPACEBEE-3

Hit Count: updated at: Thu, 16 Apr 2026 04:39:24 GMT